sat.trackr.live / text

‹ back to catalog

STARLINK-31594

NORAD 59332 · 2024-057N

PAYLOAD ACTIVE UNKNOWN

§ Identity

Operator
Country
US
Launch date
2024-03-25
Launch site
AFETR
Launch vehicle
Mass (kg)
RCS (m²)

Purposes: comms

External: N2YO · Heavens-Above · Gunter

§ Orbital elements

Epoch: 2026-05-25T05:24:49.891680Z

Period
94.27 min
Inclination
43.0013°
Eccentricity
0.0000875
Mean motion
15.27583022 rev/d
Perigee alt
482.4 km
Apogee alt
483.6 km
Semi-major
6,861.2 km
B*
1.8797e-6
RAAN
126.1337°
Arg perigee
264.8352°
Mean anomaly
95.2400°
Rev number
12,141

§ Raw data

STARLINK-315941 59332U 24057N   26145.22557745 -.00000210  00000+0  18797-5 0  99952 59332  43.0013 126.1337 0000875 264.8352  95.2400 15.27583022121412

JSON: /api/v1/satellites/59332 · /tle

For live sub-satellite position, see the globe view (requires WebGL).

§ Visibility from observer

Set your observer location to see the next 7 days of passes ≥ 10°. The values pass through the URL so the page stays shareable.

No JS? Fill the form by hand. The geolocation button needs JavaScript.